Location: Unspecified
(0.0000°N, 0.0000°E)
Time: 19:32:08
(UTC+02:00)

SJ-6B - Visible Passes

Search period start: 25 July 2014 00:00
Search period end: 04 August 2014 00:00
Orbit: 520 x 599 km, 97.8° (Epoch: 25 July)

Date Brightness Start Highest point End Pass type
(mag) Time Alt. Az. Time Alt. Az. Time Alt. Az.
25 Jul 5.7 07:02:56 10° ENE 07:05:22 16° ESE 07:07:50 10° SE visible
25 Jul 5.8 20:37:01 10° SW 20:39:41 17° WSW 20:42:20 10° WNW visible
26 Jul 5.8 07:01:45 10° ENE 07:04:06 15° ESE 07:06:28 10° SE visible
26 Jul 5.7 20:35:39 10° SW 20:38:25 18° WSW 20:41:08 10° WNW visible
27 Jul 5.8 07:00:35 10° ENE 07:02:49 15° ESE 07:05:05 10° SE visible
27 Jul 5.7 20:34:18 10° SSW 20:37:08 19° WSW 20:39:56 10° WNW visible
28 Jul 5.8 06:59:25 10° ENE 07:01:32 14° ESE 07:03:41 10° SE visible
28 Jul 5.7 20:32:56 10° SSW 20:35:51 19° WSW 20:38:43 10° NW visible
29 Jul 5.9 06:58:15 10° ENE 07:00:15 14° ESE 07:02:16 10° SE visible
29 Jul 5.7 20:31:35 10° SSW 20:34:34 20° WSW 20:37:30 10° NW visible
30 Jul 5.9 06:57:06 10° ENE 06:58:58 13° ESE 07:00:51 10° SE visible
30 Jul 5.6 20:30:14 10° SSW 20:33:17 21° WSW 20:36:16 10° NW visible
31 Jul 6.0 06:55:58 10° ENE 06:57:41 12° ESE 06:59:24 10° SE visible
31 Jul 5.5 20:28:53 10° SSW 20:31:59 22° WSW 20:35:02 10° NW visible
01 Aug 6.0 06:54:52 10° E 06:56:23 12° ESE 06:57:55 10° SE visible
01 Aug 5.4 20:27:32 10° SSW 20:30:41 23° WSW 20:33:47 10° NW visible
02 Aug 6.1 06:53:47 10° E 06:55:06 11° ESE 06:56:25 10° ESE visible
03 Aug 6.1 06:52:45 10° E 06:53:48 11° ESE 06:54:51 10° ESE visible
